Wind_Speed
38 39 36 32 31 32 33 33 36 36 35 34 34 32 31 30 30 31 31 30 33 35 33 32 32 30 30 31 30 29 29 30 29 28 28 27 27 28 28 27 26 25 25 25 25 24 23 22 22 22 22 22 22 22 22 22 22 22 23 23 24 24 24 25 25 26 26 28 29 30 32 32 33 34 35 37 38 40 41 42 43 44 45 45 45 45
40 41 35 31 33 35 34 35 37 36 36 35 34 33 32 31 31 33 33 32 35 37 34 33 34 31 30 31 32 31 29 30 30 29 29 29 29 29 29 29 27 26 26 26 26 25 24 24 23 24 24 24 24 24 24 24 23 24 24 25 25 25 26 27 27 28 29 30 32 33 34 35 36 37 38 40 42 44 45 46 46 47 47 48 48 48
42 42 36 33 36 37 37 37 37 37 37 36 35 34 34 32 33 34 35 35 36 37 36 35 35 32 30 31 32 32 30 30 30 29 30 30 30 31 30 30 28 27 28 28 27 26 25 25 25 25 25 25 25 25 25 25 25 25 26 26 27 28 29 29 30 31 32 33 34 35 36 37 38 39 41 43 45 46 47 48 48 49 49 49 50 51
44 43 38 37 38 38 38 38 38 38 38 37 36 36 35 34 34 36 38 37 36 38 38 37 37 33 30 31 32 33 31 30 30 30 31 31 32 32 31 31 30 29 29 29 28 27 26 26 26 26 26 26 26 26 26 27 27 27 28 29 30 31 31 32 32 33 34 35 36 36 37 39 40 42 44 46 47 48 49 49 50 50 50 51 52 53
44 44 40 39 39 39 40 39 39 39 39 37 37 37 36 36 36 37 39 39 37 39 39 38 40 35 30 31 32 32 32 31 31 32 32 32 32 32 31 31 30 30 30 30 30 28 27 27 27 27 27 28 28 28 28 28 29 30 30 31 32 33 34 34 35 35 36 37 38 38 39 41 43 44 46 48 49 50 50 51 51 51 52 52 54 55
44 43 39 38 39 40 40 40 39 39 39 38 38 37 36 37 39 39 39 39 39 40 39 38 41 39 33 33 32 30 32 33 32 32 32 32 32 31 31 31 31 31 31 31 31 30 29 28 28 28 28 29 29 29 29 30 31 31 32 33 34 35 36 36 36 37 38 39 40 41 42 43 45 46 48 50 51 51 51 52 52 53 53 54 55 57
43 42 39 38 39 40 41 41 38 37 38 40 40 37 37 38 40 40 39 39 40 42 41 39 41 42 38 34 31 30 33 35 33 33 33 32 32 31 31 31 31 31 31 32 31 30 29 29 28 29 29 30 30 30 31 31 32 32 33 34 35 36 37 37 38 39 40 41 42 43 44 45 46 48 50 51 52 52 53 53 53 53 54 55 57 58
43 41 40 39 39 40 40 39 37 35 38 42 41 38 38 39 39 40 40 40 41 43 44 42 41 45 43 35 31 32 35 36 34 34 34 33 33 32 32 31 31 32 32 32 31 31 30 29 29 30 30 30 31 32 32 33 34 34 35 36 37 38 38 38 39 40 42 43 44 45 45 46 48 50 52 53 53 53 54 54 54 54 56 57 58 60
42 40 39 38 38 39 37 36 36 36 40 43 41 39 39 39 40 40 41 42 43 45 47 44 40 45 46 38 33 35 37 36 35 35 35 34 34 33 32 31 31 32 32 32 32 31 31 30 31 31 31 32 33 34 35 36 37 37 38 39 39 39 39 40 41 42 43 45 46 47 47 48 50 52 53 54 55 55 55 55 55 56 57 59 60 62
41 38 36 36 37 37 36 35 36 37 40 42 41 40 40 40 41 41 43 44 46 49 49 45 41 43 46 43 38 35 36 36 36 37 36 34 34 33 32 32 32 32 32 32 32 31 31 31 32 32 33 34 36 37 38 39 40 41 42 42 41 40 40 41 43 44 46 47 48 48 49 50 52 54 55 56 56 56 56 56 57 58 59 61 62 64
41 38 36 37 37 37 36 36 37 39 40 41 41 41 41 42 42 44 46 46 49 52 50 44 42 42 46 47 42 35 35 37 38 37 36 35 34 32 32 32 32 32 32 32 32 32 32 32 33 34 35 37 39 40 41 42 43 44 44 43 42 42 43 44 46 47 49 50 50 50 51 52 54 56 57 57 57 57 57 58 59 60 61 63 64 65
40 39 38 38 38 38 39 39 39 40 40 41 42 42 42 44 45 46 48 49 51 52 49 45 43 43 46 47 44 37 34 36 38 36 34 35 35 33 33 32 32 32 33 33 33 33 34 34 35 36 38 40 41 42 43 44 45 45 45 44 44 45 46 48 49 50 51 51 51 51 53 54 56 57 58 57 57 58 59 60 61 62 64 65 66 68
41 41 41 40 40 40 40 40 40 40 40 41 42 43 43 45 47 49 49 50 50 50 50 47 45 45 47 45 44 40 35 34 36 35 34 34 34 34 34 33 33 33 34 34 35 35 36 37 38 39 40 41 42 43 44 45 46 46 46 47 47 48 49 50 51 51 52 52 52 53 54 56 57 58 58 58 59 60 61 62 63 65 66 68 69 70
43 43 42 42 41 40 40 41 41 41 41 42 43 44 44 45 48 50 49 49 49 48 48 48 47 48 48 44 41 40 37 33 33 34 35 35 35 35 34 33 34 34 35 35 36 37 38 39 40 41 42 43 43 44 45 47 47 48 48 49 49 50 50 51 52 52 52 53 54 55 56 58 59 59 59 60 61 62 63 64 66 67 69 70 70 71
44 44 42 41 41 40 41 41 43 44 43 44 44 46 47 46 47 48 48 49 50 49 49 49 49 49 48 44 40 38 38 34 32 32 34 35 36 35 34 34 35 35 35 36 37 38 40 41 42 43 44 45 46 47 48 49 50 50 50 50 50 51 52 53 53 53 54 55 56 57 59 60 60 61 61 62 63 64 65 67 68 69 70 71 72 73
43 44 43 41 42 43 43 43 45 46 46 46 46 48 49 45 43 46 48 49 50 51 51 51 50 48 46 44 41 39 37 35 33 32 33 35 35 35 35 35 35 35 35 36 37 38 40 42 43 45 46 47 48 50 51 51 51 51 52 52 53 53 54 54 54 54 55 57 58 59 61 61 61 62 63 64 65 66 67 68 70 71 72 72 73 74
45 46 45 43 43 44 45 45 47 48 48 49 48 48 47 43 43 47 49 49 51 53 53 52 49 46 44 43 41 38 35 34 34 35 34 35 36 36 36 36 36 36 36 36 36 38 40 42 44 45 47 49 51 52 52 52 53 53 53 54 55 56 56 55 55 56 58 59 60 61 62 62 63 64 65 66 67 68 69 70 71 72 73 73 73 74
46 48 48 45 45 46 46 47 49 50 50 50 49 48 46 45 46 48 50 51 52 54 53 51 49 45 43 43 40 36 35 34 35 37 38 37 37 37 37 37 37 37 38 38 38 40 42 43 45 47 49 51 52 53 53 53 53 54 55 56 57 57 56 57 57 59 60 61 61 62 63 64 65 66 67 68 69 70 71 72 73 73 73 74 74 74
47 48 50 48 48 48 48 49 51 51 50 49 50 49 47 47 48 48 49 51 52 53 52 50 50 47 44 44 40 36 36 37 37 38 39 39 39 38 38 39 39 39 40 40 41 43 44 46 48 50 52 53 53 53 53 53 54 56 57 57 57 57 57 58 60 61 62 62 63 63 64 65 67 68 69 70 71 72 73 74 74 74 74 74 74 74
46 48 51 51 49 49 50 52 52 50 48 49 50 50 49 48 48 48 49 50 49 52 51 50 51 49 45 43 40 37 37 39 40 39 40 41 41 41 41 41 42 42 42 43 45 46 47 49 52 54 55 55 55 54 54 54 56 57 57 58 57 58 59 61 62 62 63 63 64 65 66 67 69 70 71 72 73 74 75 75 74 74 74 74 74 73
48 49 50 51 51 52 53 53 51 49 50 50 51 52 51 49 47 48 51 50 48 50 50 51 51 49 46 43 40 38 39 40 40 41 42 43 43 43 43 44 44 45 45 46 48 49 51 54 57 58 58 57 56 55 55 56 57 57 58 59 59 60 62 63 63 63 64 64 65 66 67 69 70 72 73 74 75 76 75 75 74 74 74 74 73 73
51 50 50 52 53 53 54 53 51 52 53 53 53 54 54 51 48 50 52 50 48 49 49 51 52 49 48 46 42 39 39 40 40 42 44 45 45 45 46 47 48 48 49 50 51 52 55 58 60 60 60 58 57 56 57 58 58 59 60 61 62 63 64 64 64 64 65 66 67 68 69 71 72 74 75 76 77 76 76 75 74 74 73 73 72 71
52 53 53 54 54 53 54 54 54 55 55 56 56 56 55 52 50 51 53 52 50 49 48 50 53 51 48 47 44 42 41 41 42 44 45 46 47 48 49 51 51 51 51 52 54 56 59 62 62 61 60 60 59 59 60 60 60 61 62 63 64 65 65 65 65 66 67 67 69 70 71 73 74 76 76 77 77 76 76 74 73 72 71 71 70 70
55 56 54 54 54 55 56 56 57 57 58 58 56 52 50 50 48 49 51 52 52 51 48 50 54 53 49 47 46 45 44 44 44 46 47 48 49 51 53 53 53 53 53 55 57 59 62 63 63 62 62 61 61 61 62 62 62 63 65 65 66 66 66 67 67 68 68 70 71 72 74 75 76 77 77 77 77 76 74 72 71 70 70 70 70 70
57 56 53 53 56 59 59 58 58 57 56 55 51 48 48 48 47 49 50 50 51 51 49 52 55 53 50 49 48 47 46 45 46 48 49 51 53 55 56 56 55 55 55 57 60 62 64 64 63 64 64 63 63 63 64 64 64 66 67 67 67 67 68 68 69 70 71 72 73 74 75 76 77 77 77 76 75 74 72 70 70 70 70 70 70 70
60 60 58 58 61 63 62 59 57 54 52 50 48 47 47 46 45 46 45 48 52 51 50 53 54 50 50 50 49 47 47 47 49 51 52 55 57 59 59 59 58 58 59 61 63 65 66 65 65 66 65 65 65 65 65 65 66 67 68 68 69 69 69 70 71 72 73 74 75 75 76 77 77 77 76 75 73 71 70 69 69 70 70 70 70 70
61 62 61 62 63 61 58 56 55 53 52 50 48 48 48 46 45 45 47 51 53 52 52 53 51 49 50 50 49 49 50 51 53 54 56 57 59 61 60 60 61 62 63 65 67 68 68 68 68 67 67 66 66 66 65 66 67 68 69 69 70 70 71 72 73 74 75 75 76 76 77 77 77 76 74 72 71 69 69 70 70 70 70 70 70 71
62 63 62 62 62 59 55 54 55 55 54 52 51 51 51 50 49 50 53 53 51 53 55 52 49 51 51 52 53 54 55 56 57 58 59 60 61 61 62 63 65 66 68 70 71 71 71 70 69 68 68 67 67 66 66 67 68 69 70 71 71 71 72 73 74 75 76 76 77 77 76 76 75 74 72 70 69 69 69 70 71 71 71 71 71 72
63 64 64 62 60 58 55 55 56 55 54 54 54 54 53 53 53 55 56 53 52 58 58 53 53 56 55 56 58 59 60 60 60 60 61 62 62 62 64 66 69 71 72 73 73 73 72 72 70 69 68 68 67 67 68 68 70 71 72 72 72 73 74 75 75 76 76 77 76 75 74 74 73 72 70 69 68 69 70 71 71 72 72 72 73 73
62 61 60 60 60 58 55 56 56 55 55 55 56 56 54 53 54 56 56 54 55 60 59 58 60 61 60 61 61 61 62 61 61 63 64 64 65 66 67 69 71 73 74 74 74 74 74 72 70 69 68 68 68 68 69 70 71 72 73 73 74 74 75 75 76 77 77 76 75 73 73 72 71 70 68 68 68 69 70 71 72 72 73 74 74 75
62 60 58 58 61 59 55 55 55 56 56 55 55 54 53 53 55 57 56 54 56 58 57 59 62 61 62 64 61 61 62 61 63 65 65 66 68 70 72 72 73 74 74 74 74 74 73 71 69 69 69 69 69 68 70 72 73 74 74 74 75 75 76 76 76 76 76 74 73 71 70 70 69 68 67 68 69 70 71 72 72 73 74 74 75 76
64 63 61 58 60 58 53 53 55 57 58 58 56 53 53 56 59 59 56 55 57 57 56 59 61 60 61 62 60 60 61 62 64 66 67 70 72 74 75 76 76 74 73 73 73 72 70 69 69 69 69 68 68 69 71 73 74 75 75 75 76 76 76 76 75 75 74 72 70 69 68 68 67 67 67 68 69 70 71 72 73 73 74 75 77 78
65 63 60 58 59 57 52 54 57 58 61 63 58 53 54 59 61 61 58 56 57 57 59 61 60 58 59 60 59 60 60 61 63 65 67 70 72 74 76 75 74 72 71 71 70 69 68 68 69 69 68 67 69 72 74 74 75 76 76 76 76 76 75 74 73 73 71 69 68 67 67 67 67 67 68 68 69 71 72 72 73 74 76 77 78 79
63 61 58 58 59 58 56 58 60 61 64 63 58 55 57 60 61 62 60 58 58 59 61 61 60 59 61 61 60 60 60 60 62 64 67 70 72 73 73 72 71 70 69 69 68 68 68 68 68 67 67 69 72 74 75 76 76 77 77 76 76 74 74 73 72 70 68 67 66 66 66 66 67 67 68 68 70 71 72 73 74 76 77 78 79 79
61 60 58 59 61 61 61 62 64 66 67 63 60 59 61 62 63 64 63 61 61 62 63 62 61 61 60 60 59 60 61 62 64 66 68 70 72 72 72 71 70 69 68 68 68 68 68 67 67 67 69 72 74 75 76 77 77 77 76 75 74 73 72 71 69 68 66 65 65 65 65 66 67 67 68 69 70 71 72 74 75 76 77 78 78 77
61 61 61 61 63 64 65 67 69 69 67 64 63 63 64 66 66 67 66 63 62 63 63 62 61 60 60 60 60 60 61 63 66 68 69 70 70 69 69 69 68 68 68 67 67 67 66 66 67 69 72 74 75 76 77 78 78 76 74 73 72 71 70 69 67 65 64 64 64 65 65 66 67 68 68 69 71 72 73 74 76 77 77 76 74 73
64 63 63 64 65 66 67 70 70 69 68 67 67 67 68 69 69 68 68 66 64 65 65 64 63 63 63 63 63 63 64 66 68 69 69 67 66 65 66 66 66 66 66 65 66 66 67 68 70 73 75 76 77 78 78 78 77 75 72 71 70 69 68 66 65 63 63 63 64 65 66 67 67 68 69 70 72 73 74 75 75 75 73 70 69 69
65 65 64 64 66 66 66 67 68 69 71 69 68 68 69 69 69 69 69 68 67 68 67 65 65 65 65 65 65 66 68 69 70 69 66 63 62 64 65 65 64 64 64 65 66 67 69 71 73 75 77 77 78 79 78 77 75 72 71 70 69 68 66 64 63 62 63 64 65 65 66 67 67 69 71 72 73 74 75 74 72 69 67 66 66 66
64 63 62 63 64 64 65 66 67 69 70 68 67 68 69 68 67 67 69 69 68 67 68 66 65 66 66 66 67 68 69 70 69 66 63 62 63 64 64 64 64 65 66 67 69 71 72 74 76 77 78 78 79 79 77 75 72 71 69 68 67 65 64 62 62 63 64 65 65 66 67 68 69 71 72 74 74 74 72 69 66 64 63 64 64 64
62 62 62 63 64 65 66 68 69 69 69 68 68 68 68 67 66 66 68 69 67 66 67 66 65 66 66 66 67 67 67 67 65 63 63 63 64 65 65 65 66 67 69 70 72 74 76 77 78 78 79 78 78 76 74 71 70 68 67 66 65 64 62 62 63 64 65 65 66 67 69 70 72 73 74 74 72 69 66 63 62 62 63 63 64 64
62 63 63 64 65 65 67 69 70 70 70 69 68 68 68 67 67 67 68 68 66 65 66 66 66 66 65 65 65 65 64 64 64 63 63 63 64 66 67 68 69 71 72 74 75 76 77 78 78 78 77 76 74 72 70 69 67 66 65 65 64 62 63 64 65 65 66 67 68 70 71 73 74 74 73 70 66 63 62 62 62 63 63 64 64 63
63 63 63 63 64 64 65 66 67 69 68 67 67 67 67 67 68 68 68 67 67 66 67 67 67 66 65 65 65 64 64 64 64 64 64 65 66 68 69 71 72 73 74 75 77 78 78 78 77 76 74 73 72 70 68 67 65 65 64 64 63 63 65 66 67 67 68 70 71 73 74 74 73 70 66 62 61 61 62 62 63 63 64 64 63 62
61 61 62 62 62 63 63 63 65 66 65 64 65 65 65 66 68 68 67 67 67 67 67 68 67 66 66 65 64 64 64 65 65 65 66 67 68 70 71 72 73 74 75 77 78 78 77 76 74 73 72 71 70 68 66 65 64 64 64 63 64 65 67 68 68 69 71 73 74 75 73 70 66 62 60 59 60 62 62 63 64 64 63 63 62 61
61 61 62 62 62 63 64 64 64 63 61 61 62 64 65 67 68 67 66 66 66 65 66 66 66 66 66 65 65 65 65 66 67 67 68 69 70 71 72 73 74 76 77 77 76 75 74 72 71 71 70 70 68 66 65 64 64 65 64 64 66 68 69 70 71 73 74 74 73 71 67 63 60 59 59 60 61 62 63 64 64 63 63 62 61 59
63 63 63 63 63 64 64 64 63 61 60 59 61 62 64 66 66 66 64 64 64 64 64 64 64 64 64 64 65 65 66 67 68 69 70 71 72 73 74 75 76 76 75 74 72 71 71 70 70 69 68 67 66 65 65 64 65 65 65 66 68 70 71 72 74 74 73 70 67 63 60 59 59 59 60 61 62 63 64 63 63 62 62 60 59 57
64 63 63 63 63 64 63 63 63 63 62 62 61 62 62 63 62 62 62 62 62 62 62 62 62 63 64 65 66 67 69 69 70 70 71 73 74 75 76 76 74 73 71 70 70 69 69 68 68 67 66 66 65 65 65 65 66 66 66 68 70 72 73 74 73 70 66 63 60 59 58 58 59 60 61 62 63 63 64 63 62 61 60 58 57 56
62 62 62 62 62 62 63 62 62 63 63 62 62 62 61 61 60 61 61 62 62 62 63 63 63 64 66 67 68 69 70 71 71 72 73 75 75 75 74 72 71 69 68 68 67 67 67 66 66 65 65 65 65 65 65 66 67 68 69 71 73 73 72 69 65 62 60 59 59 59 59 59 60 61 62 63 63 63 63 63 61 59 57 55 55 55
59 59 60 61 61 61 61 61 62 62 62 62 63 63 63 63 63 63 63 64 64 64 64 64 65 66 67 68 69 70 71 72 73 74 75 75 74 72 70 68 67 66 66 66 66 66 65 65 64 64 65 65 65 66 67 68 69 70 72 72 71 69 65 61 59 58 58 59 59 60 60 60 61 62 63 63 63 63 63 62 61 59 57 55 54 55
56 57 58 59 60 60 60 60 61 62 63 64 65 66 67 67 66 65 65 65 65 66 66 67 67 68 69 70 71 72 73 73 73 73 72 71 69 68 66 65 65 64 64 65 65 64 64 63 63 64 65 65 66 68 69 70 71 72 71 68 65 61 59 57 57 57 58 59 60 60 61 62 62 63 63 63 63 63 63 63 62 61 59 57 56 57
55 57 58 58 60 60 61 62 64 65 67 68 69 69 69 68 67 67 67 68 68 69 70 71 71 72 72 72 73 72 72 71 70 69 68 66 65 64 64 64 63 63 63 63 63 63 63 63 63 64 65 66 68 70 70 70 70 67 64 61 58 57 57 57 57 58 59 60 60 61 62 63 63 64 64 63 63 64 64 64 63 63 62 60 59 59
56 57 59 60 61 62 63 64 66 67 68 69 69 70 70 70 70 70 70 71 72 72 73 73 73 72 72 72 72 71 70 68 66 65 63 62 62 62 62 62 62 62 62 63 63 63 63 64 65 66 66 67 69 69 68 66 63 60 58 57 57 57 58 58 58 58 59 60 61 62 63 64 64 64 65 65 64 64 64 65 65 64 64 63 62 61
Wind_Direction
269 270 272 277 277 273 270 270 270 271 272 272 271 270 267 265 265 267 267 265 263 261 260 261 261 262 266 268 267 264 264 265 264 263 264 266 269 271 273 273 271 266 258 252 248 247 248 251 254 258 262 264 265 264 265 267 267 267 269 271 274 278 282 284 286 289 293 295 296 296 297 297 296 296 298 301 303 304 303 301 299 297 294 292 292 292
268 270 274 275 272 271 270 269 271 273 273 273 271 269 266 264 266 267 265 262 261 262 261 260 261 261 264 267 268 265 263 263 263 263 264 266 269 271 272 272 270 265 257 252 249 248 249 251 254 258 261 262 262 263 265 266 267 269 272 274 276 280 283 285 287 290 292 294 294 294 296 298 299 301 303 306 306 306 304 302 299 296 294 293 293 294
269 271 272 270 269 270 270 271 272 273 273 272 270 267 265 265 266 267 265 262 261 262 262 261 261 261 262 265 267 266 263 262 263 264 264 266 269 271 271 271 269 263 256 251 249 248 250 253 256 259 261 262 262 263 266 267 268 271 275 276 278 281 283 285 287 289 291 292 294 295 298 300 302 305 307 307 307 305 303 301 298 295 294 294 294 295
269 269 268 267 268 269 270 272 272 272 271 270 268 266 265 266 267 268 266 262 261 262 262 263 262 260 261 263 263 265 264 264 264 264 265 266 268 269 269 268 266 261 254 250 250 250 252 255 258 260 262 262 263 266 269 270 271 274 276 277 279 281 283 285 286 288 290 293 296 298 300 302 305 307 307 306 305 303 302 299 297 294 294 294 294 295
268 268 267 267 268 269 269 270 270 270 269 268 266 264 266 268 269 267 266 264 262 261 262 265 265 262 260 260 260 263 265 264 264 265 265 266 266 266 266 265 263 257 251 249 250 252 255 258 260 261 262 263 265 268 271 273 274 276 278 279 280 282 283 284 286 288 291 295 297 300 302 304 306 307 306 305 303 302 300 298 295 294 293 294 294 294
268 268 268 268 268 268 268 267 268 268 267 266 263 264 268 270 269 267 266 266 265 263 261 264 267 265 260 258 258 262 266 264 263 264 265 265 265 264 262 261 258 254 250 249 251 254 258 259 260 261 262 264 267 270 272 274 276 277 278 279 280 281 282 284 286 289 292 295 298 301 303 305 305 305 304 303 302 301 299 296 294 293 293 293 293 293
267 269 269 268 266 265 265 265 265 265 266 265 263 264 268 268 268 267 267 266 266 266 264 263 266 267 262 259 259 261 265 265 264 264 265 265 264 262 260 258 255 251 249 249 252 256 259 260 261 262 265 267 269 271 273 275 277 278 279 279 280 282 283 285 287 290 292 295 298 301 303 303 303 302 302 302 301 299 297 295 293 292 292 293 293 293
266 267 267 265 264 263 262 263 264 264 265 265 265 267 268 266 266 267 268 268 267 268 267 265 267 269 265 262 262 262 263 264 265 266 265 265 263 260 258 255 252 250 249 251 254 257 258 259 262 265 267 268 270 272 274 276 277 279 280 281 282 283 284 286 288 290 292 295 298 300 301 302 301 301 301 300 299 298 295 293 292 292 292 292 292 292
264 264 264 263 263 262 262 262 263 263 263 265 267 268 267 266 266 267 269 270 270 269 268 267 270 271 269 267 264 263 264 265 267 267 265 263 261 258 256 253 251 250 250 251 254 256 258 260 264 267 268 270 272 274 276 277 278 279 281 282 284 285 285 286 288 290 293 296 299 300 300 300 300 300 300 299 298 296 294 292 292 291 291 291 291 292
263 262 262 261 261 262 262 262 262 263 263 266 268 267 267 267 268 270 270 271 272 269 268 271 273 274 274 271 266 264 265 266 265 266 265 263 260 257 254 252 250 250 251 253 255 257 259 262 266 268 271 273 275 276 277 277 279 281 282 284 286 287 288 289 290 293 295 298 299 299 299 299 299 300 299 298 296 295 293 292 292 292 292 292 291 291
264 263 261 260 261 262 263 262 262 262 263 266 267 267 269 270 270 271 271 271 271 270 271 275 278 277 274 271 268 266 266 266 264 264 264 262 259 256 253 251 250 251 252 254 257 259 261 265 268 271 273 276 277 278 278 278 280 282 284 286 288 289 290 292 293 295 297 298 299 298 298 298 299 298 297 296 294 294 293 293 293 293 293 292 292 291
263 262 261 260 261 261 261 261 261 262 264 266 268 269 271 271 271 270 270 270 271 273 276 278 278 276 273 272 273 271 267 266 266 264 262 258 256 254 253 252 252 252 253 255 258 261 264 267 270 273 275 277 278 279 279 280 281 284 286 289 290 291 292 294 295 296 297 298 298 297 297 298 297 296 295 294 294 293 293 294 294 294 293 293 292 291
261 260 261 261 260 261 261 262 262 263 264 265 267 268 269 270 271 271 271 273 275 277 279 280 278 274 272 272 275 275 269 264 264 263 260 256 254 252 252 253 253 254 255 258 260 263 266 269 271 274 277 279 280 281 281 282 284 286 288 289 290 291 293 294 295 296 296 296 297 297 297 297 296 295 294 294 294 294 294 294 294 294 293 293 292 291
261 261 262 263 263 263 263 263 263 263 262 264 265 266 267 269 271 274 276 279 280 279 279 279 277 274 272 272 274 276 273 266 259 258 257 254 253 253 253 253 254 255 257 259 262 265 268 271 273 276 279 281 283 284 284 284 285 285 286 288 289 291 293 294 295 296 296 297 297 297 298 297 296 295 295 295 295 295 295 295 295 294 293 292 292 291
263 263 262 262 263 262 262 262 262 262 262 263 265 266 267 269 273 278 280 281 280 279 278 276 275 274 275 275 274 273 272 268 261 255 252 252 252 253 253 253 254 256 259 262 265 269 272 274 277 279 281 283 284 284 283 283 283 284 285 288 291 293 295 296 296 297 297 297 298 298 298 297 296 295 295 295 295 295 295 295 294 294 293 292 292 291
263 263 262 261 260 260 260 261 262 263 264 264 264 266 268 272 277 279 278 279 279 278 276 275 275 276 278 278 276 273 271 269 265 258 251 250 250 251 252 252 254 257 260 264 268 272 275 277 278 279 281 282 283 283 283 283 283 285 288 292 295 296 297 297 297 297 298 298 298 298 297 296 295 295 296 296 296 296 295 295 294 293 293 292 292 292
263 263 262 260 259 259 259 261 262 263 264 264 265 267 271 275 276 276 276 276 276 275 276 276 277 279 279 278 276 275 272 268 264 261 256 252 251 251 251 253 254 257 260 265 270 275 278 279 279 280 281 282 283 284 285 285 287 289 292 295 296 297 297 297 297 298 298 298 297 296 296 295 295 296 296 296 296 296 296 295 294 293 292 292 292 292
261 262 261 260 259 260 261 261 262 262 264 266 268 270 273 274 273 274 275 275 274 275 277 278 279 278 276 274 273 272 271 266 261 260 258 257 255 253 253 253 254 257 261 266 272 279 282 282 282 283 284 285 286 287 288 289 291 292 293 295 296 296 297 297 298 298 298 297 296 295 295 295 295 296 296 296 296 296 296 295 294 293 293 293 294 294
259 261 262 261 261 261 262 262 262 263 265 268 270 271 272 273 273 273 273 274 275 275 276 277 276 275 273 272 272 270 268 265 262 260 261 261 261 259 257 257 258 260 264 269 275 281 285 286 286 287 288 289 290 291 292 292 292 292 293 295 296 297 298 298 298 298 297 296 295 295 295 295 296 296 296 297 297 297 296 296 295 295 295 295 295 294
259 260 261 262 262 263 263 262 263 266 268 269 269 270 270 270 272 272 271 271 272 272 274 274 274 274 273 271 272 271 268 266 265 265 265 265 265 264 263 263 264 266 269 273 277 282 287 289 289 289 289 291 294 294 294 293 293 293 295 296 297 298 298 298 298 298 297 296 296 296 295 296 296 297 298 298 298 297 297 296 296 296 296 295 295 294
261 261 263 265 266 265 263 264 266 267 266 266 267 268 269 270 271 269 268 267 267 269 272 273 273 275 274 273 274 274 271 269 270 270 269 268 267 267 267 267 267 268 271 274 278 284 288 289 290 289 290 293 296 296 295 294 294 295 296 297 297 298 298 298 298 297 297 296 296 296 296 297 297 298 298 299 298 298 297 297 296 296 295 295 295 294
263 263 265 267 267 266 266 266 266 265 265 266 267 268 267 267 267 267 268 269 268 269 271 272 273 274 274 275 277 276 274 273 272 270 270 270 270 270 270 269 269 270 273 276 280 284 287 288 289 289 290 293 295 295 294 294 294 295 296 297 298 298 298 298 298 297 297 296 296 297 297 298 299 299 299 299 298 298 297 297 296 295 295 295 295 294
262 262 264 268 270 271 271 269 268 267 267 267 265 265 266 267 268 270 272 273 271 269 268 269 270 270 271 275 278 278 278 276 274 273 273 274 275 274 273 271 270 272 275 279 282 284 286 287 288 289 290 293 294 294 295 295 295 295 297 298 298 298 298 298 298 298 297 298 298 299 299 299 299 299 299 298 298 297 297 296 296 295 295 295 295 294
263 263 266 269 272 272 270 269 267 266 266 266 266 268 269 270 272 272 270 269 268 266 266 268 268 268 270 273 276 276 276 277 277 277 277 277 277 276 274 273 273 275 278 280 282 284 285 285 287 289 290 292 293 294 295 295 295 296 298 298 298 299 299 299 299 299 299 300 300 300 300 299 299 299 298 298 297 297 297 297 296 296 295 295 295 295
263 262 263 266 269 270 267 265 266 267 269 271 272 271 270 270 271 269 267 266 266 266 267 267 266 267 270 272 273 274 276 279 280 280 280 280 279 277 277 277 278 279 280 281 282 283 284 285 288 289 290 291 293 294 294 295 296 297 298 299 299 300 300 300 300 300 301 301 300 300 299 299 299 298 298 298 298 297 297 297 297 296 296 296 296 295
261 261 262 266 271 271 267 265 267 269 271 270 267 265 265 265 266 267 265 263 263 263 265 266 266 269 272 273 275 277 278 280 282 282 282 282 281 280 280 281 281 281 281 281 282 283 285 286 288 289 290 291 292 293 294 295 296 297 298 300 301 301 301 300 301 301 301 300 300 299 299 298 298 297 297 297 297 297 297 296 296 295 295 295 295 294
261 261 265 270 273 272 269 268 268 267 264 261 260 262 263 263 264 263 259 258 261 263 264 266 269 272 274 276 278 279 280 281 282 282 282 282 282 282 282 283 282 281 281 281 282 284 285 286 288 289 290 290 291 292 293 294 296 298 299 301 301 301 300 301 301 300 300 299 299 298 298 297 297 296 297 297 297 296 296 295 295 295 295 294 294 294
262 265 270 273 273 271 268 266 264 262 259 258 259 260 261 261 262 261 260 261 263 264 265 268 272 274 276 278 279 279 279 279 279 280 282 282 282 283 283 282 281 280 280 280 282 284 285 286 288 288 287 288 290 291 293 294 296 298 300 300 300 300 300 300 300 299 299 298 298 297 297 296 296 296 296 296 296 296 295 295 295 295 294 295 295 295
267 270 273 272 269 266 263 261 259 258 257 258 259 259 259 260 261 262 264 265 265 264 267 271 273 273 275 276 276 276 276 276 278 281 283 283 283 283 282 281 280 280 280 280 282 284 286 286 286 285 286 288 290 291 292 295 297 299 300 300 300 300 300 299 298 298 297 297 297 296 295 295 295 295 296 296 296 295 295 295 294 295 295 295 296 296
268 269 269 267 264 262 260 259 257 256 257 259 259 259 259 260 261 262 264 265 264 265 268 270 270 272 274 275 275 275 276 278 280 281 281 281 281 280 279 279 279 279 279 280 282 284 284 284 283 284 286 288 289 291 293 296 298 298 299 299 300 299 298 297 297 297 296 296 295 294 294 294 294 295 295 296 295 295 294 294 294 295 295 296 296 296
267 266 264 261 260 259 258 258 258 258 260 261 260 258 257 257 260 261 264 265 265 267 269 269 270 271 272 273 274 276 278 279 279 278 278 278 278 277 277 277 277 278 279 281 282 283 282 281 282 284 286 288 289 291 294 296 297 297 298 299 299 298 296 296 296 295 295 294 294 293 294 294 294 295 295 295 294 294 294 294 294 295 296 296 296 296
265 264 262 259 258 258 257 257 259 260 263 261 258 257 258 259 262 264 267 268 267 269 269 268 269 271 272 273 274 275 275 275 275 276 276 277 276 276 275 274 275 277 279 280 280 279 279 280 282 285 286 287 289 292 294 295 295 297 298 298 297 296 295 295 295 294 294 293 293 293 294 294 294 295 295 294 294 293 294 294 295 296 296 297 297 297
262 261 260 257 258 258 256 258 261 262 262 260 259 260 262 263 264 266 268 269 269 270 269 267 268 271 271 270 270 270 270 272 273 275 276 275 275 274 274 274 275 277 278 278 277 277 278 280 283 284 285 287 289 292 293 294 296 298 298 297 296 295 294 294 293 293 293 293 293 294 294 294 294 294 294 293 293 294 294 295 296 296 296 296 296 296
258 258 257 256 259 259 257 259 262 260 259 260 262 264 264 264 265 267 268 270 271 270 268 268 268 268 267 266 267 267 268 269 271 271 272 272 272 273 274 275 276 276 276 276 276 277 280 281 282 283 285 287 290 291 293 295 297 297 297 295 294 293 293 293 292 292 292 293 294 294 293 293 293 293 293 293 294 294 295 296 296 296 296 296 296 296
255 255 255 255 259 261 260 261 261 259 260 263 265 266 266 265 266 267 268 269 271 271 270 270 270 270 270 270 269 268 268 268 268 269 269 270 271 272 273 274 275 275 275 276 278 279 280 281 281 283 286 288 290 292 294 296 297 296 295 293 292 292 292 292 292 292 293 293 293 293 292 292 292 292 293 294 294 295 295 296 295 295 295 296 296 297
255 255 255 255 258 261 261 260 259 260 262 264 264 266 266 265 265 266 267 269 271 271 271 271 271 271 270 269 269 268 268 268 268 269 269 270 270 271 272 273 273 274 276 277 278 278 279 279 282 285 287 290 292 294 295 296 296 294 293 292 292 292 292 292 292 292 292 293 292 291 291 291 292 292 293 294 294 295 295 295 295 295 296 296 297 297
256 256 257 257 257 258 260 260 260 261 261 261 263 264 265 264 264 266 267 268 269 269 269 270 271 270 269 269 269 269 269 269 269 271 271 271 271 272 272 272 274 275 276 275 275 276 278 281 284 287 289 291 293 295 296 295 294 293 293 292 292 292 291 291 291 292 292 291 291 290 291 291 292 293 293 294 294 295 295 295 295 296 296 297 297 297
256 256 256 257 258 258 260 261 261 260 260 261 263 264 265 265 265 266 266 267 268 269 270 270 270 270 270 270 269 269 269 270 271 273 273 272 272 272 272 273 273 273 272 273 275 277 280 283 286 289 291 293 294 295 294 294 293 293 292 292 292 291 291 291 291 291 290 290 290 290 291 292 292 293 293 294 295 295 295 295 296 296 296 296 296 297
254 255 255 256 257 257 258 259 259 260 261 263 264 264 264 264 264 265 264 265 266 267 268 268 268 268 268 268 268 269 269 270 272 273 273 272 272 271 271 271 271 271 272 275 278 281 284 287 289 291 292 293 293 293 293 293 292 292 291 291 290 290 290 291 290 289 289 290 291 291 292 292 293 294 295 295 295 295 295 295 295 295 296 296 297 297
253 254 254 254 255 256 257 258 259 260 262 263 263 263 263 263 262 261 261 263 265 266 266 267 267 266 267 267 268 269 270 271 272 272 272 271 270 270 270 270 271 273 276 279 282 284 287 289 290 291 292 292 292 292 292 292 291 291 290 289 289 290 290 289 289 289 290 291 292 292 293 294 295 295 295 295 295 295 295 295 295 296 296 297 298 299
253 253 254 254 255 256 257 258 260 261 262 263 263 262 262 262 261 260 262 265 265 264 264 265 265 265 266 267 269 270 271 272 272 271 270 269 269 269 269 271 274 277 280 282 285 287 288 290 291 291 291 291 291 291 291 290 290 289 289 289 289 290 289 289 290 291 292 292 293 294 295 295 295 295 295 295 294 294 294 295 295 296 297 297 298 299
253 253 254 254 255 256 258 259 260 260 261 262 261 261 261 261 261 261 262 263 262 262 263 264 264 265 266 267 268 269 269 270 270 269 268 268 268 269 271 274 277 280 283 285 287 288 289 290 291 291 291 290 290 290 289 289 289 288 288 289 290 290 289 290 291 292 293 294 295 296 296 295 295 294 293 293 293 294 294 295 296 297 297 297 298 298
254 254 255 255 256 257 257 257 257 259 260 261 260 260 259 259 258 259 259 259 260 261 261 262 263 265 265 266 267 267 268 268 268 268 268 269 270 272 275 278 281 284 286 287 288 289 290 290 289 289 289 288 288 288 288 289 289 289 289 290 290 289 289 291 292 293 294 295 296 296 295 294 293 293 293 293 294 294 295 296 296 296 296 297 297 297
255 256 257 257 257 257 256 256 257 259 260 259 258 258 256 255 255 256 256 257 258 259 259 261 262 264 265 265 266 267 267 268 269 270 271 273 275 277 280 282 284 286 288 288 288 288 288 287 287 287 287 287 288 288 288 289 289 289 290 290 289 289 291 292 294 295 296 296 295 294 293 292 292 292 293 293 294 294 295 295 295 296 296 296 296 297
257 257 258 258 258 257 257 257 257 257 256 255 254 254 253 253 254 255 256 257 257 258 259 260 261 262 264 265 266 267 268 269 271 273 275 277 280 282 284 286 287 288 288 287 287 286 286 286 286 286 287 287 288 288 288 288 288 288 289 289 290 291 293 294 295 295 295 294 293 292 292 292 292 293 293 293 294 294 295 295 295 295 295 296 296 296
257 258 258 258 257 256 256 256 256 256 255 253 251 251 252 253 254 255 256 257 257 258 259 259 261 263 265 266 268 269 271 272 274 277 279 281 283 285 286 287 287 286 286 285 285 285 285 285 286 286 287 287 287 287 287 287 288 289 290 291 292 294 295 295 295 294 293 292 291 291 291 292 292 292 293 293 294 294 294 294 294 295 296 296 296 295
256 256 256 256 256 256 256 256 256 254 252 250 249 250 252 253 254 255 256 257 258 259 260 262 263 265 267 269 271 273 275 277 279 281 283 284 285 285 286 286 285 285 285 284 284 285 285 285 285 285 286 286 286 287 287 287 289 290 291 292 294 294 294 293 292 292 291 291 291 291 292 292 292 292 292 293 293 294 294 294 294 295 296 296 295 294
252 253 253 254 254 254 254 253 252 249 248 248 250 251 253 254 255 256 258 259 261 263 264 266 267 269 270 272 274 277 279 281 283 284 285 285 285 285 285 284 284 284 284 283 283 284 284 284 284 285 285 286 286 287 287 289 290 291 292 293 293 292 291 290 290 290 290 291 291 291 292 291 291 292 292 293 293 293 294 294 294 295 295 294 293 292
249 250 251 252 252 251 251 250 249 249 249 250 251 253 255 256 258 260 262 264 266 267 269 270 271 273 275 277 279 281 283 284 285 285 285 285 285 284 284 283 283 282 282 282 282 282 283 283 284 284 285 286 287 288 289 290 291 292 292 291 290 289 288 289 289 289 290 291 291 291 291 291 291 292 292 293 293 293 293 293 293 293 294 293 292 291
249 250 250 251 250 249 249 250 250 251 252 253 254 257 259 260 263 265 267 269 271 272 274 275 276 278 280 282 284 285 285 285 285 284 284 284 283 282 282 281 280 280 280 280 281 282 283 284 284 285 287 288 289 290 291 291 291 291 290 288 287 287 288 288 289 289 290 291 291 291 291 291 292 292 292 292 292 292 292 292 292 292 292 292 291 291
250 251 252 253 253 253 253 254 255 256 257 259 261 263 264 266 267 270 272 274 275 277 278 279 281 283 284 285 285 285 285 284 283 282 282 281 280 280 280 279 279 279 280 280 281 282 283 284 286 287 288 289 290 290 291 290 289 288 287 287 287 288 288 288 289 290 290 290 290 291 291 292 292 292 292 292 292 292 291 291 291 291 291 291 291 291
Height
5829 5829 5831 5834 5834 5832 5831 5831 5829 5830 5830 5831 5830 5830 5831 5831 5830 5830 5829 5830 5828 5826 5828 5828 5828 5829 5830 5829 5829 5830 5830 5830 5830 5830 5830 5830 5830 5830 5830 5831 5831 5832 5832 5833 5833 5833 5833 5833 5832 5832 5832 5832 5832 5832 5831 5831 5831 5831 5831 5831 5831 5830 5830 5830 5829 5829 5829 5828 5828 5827 5826 5825 5824 5822 5821 5820 5819 5818 5817 5815 5814 5813 5812 5810 5808 5807
5825 5825 5829 5831 5829 5827 5827 5827 5826 5826 5827 5827 5827 5827 5827 5827 5827 5826 5825 5826 5824 5822 5825 5825 5824 5827 5827 5826 5825 5826 5827 5826 5826 5826 5826 5826 5826 5826 5827 5827 5828 5828 5829 5829 5829 5829 5829 5829 5829 5829 5828 5828 5828 5828 5829 5829 5829 5829 5829 5828 5828 5827 5827 5826 5826 5826 5825 5825 5824 5823 5821 5820 5819 5818 5817 5815 5814 5813 5812 5810 5809 5808 5806 5805 5803 5801
5821 5822 5826 5826 5824 5823 5823 5823 5823 5823 5823 5823 5823 5823 5823 5824 5824 5822 5821 5821 5820 5819 5820 5821 5820 5823 5824 5823 5822 5822 5823 5823 5823 5823 5823 5822 5822 5822 5823 5823 5824 5825 5825 5825 5826 5826 5826 5825 5825 5825 5825 5825 5825 5825 5825 5826 5826 5825 5825 5825 5824 5824 5823 5823 5822 5822 5821 5820 5819 5818 5817 5816 5814 5813 5812 5810 5809 5808 5807 5805 5804 5802 5800 5799 5797 5795
5816 5818 5821 5820 5820 5820 5819 5819 5819 5818 5819 5819 5819 5819 5819 5820 5820 5818 5816 5817 5817 5816 5816 5816 5816 5819 5821 5820 5819 5818 5819 5820 5819 5819 5819 5819 5819 5819 5819 5820 5820 5821 5821 5821 5822 5822 5822 5821 5821 5821 5821 5821 5821 5822 5822 5822 5822 5822 5821 5821 5821 5820 5819 5819 5818 5817 5816 5815 5814 5813 5812 5810 5809 5808 5806 5805 5804 5802 5801 5799 5798 5796 5794 5793 5791 5789
5812 5812 5815 5816 5816 5815 5815 5815 5815 5814 5814 5815 5815 5815 5816 5816 5815 5814 5812 5812 5814 5812 5812 5812 5810 5814 5818 5816 5815 5816 5815 5816 5816 5815 5815 5815 5815 5815 5815 5815 5816 5816 5817 5817 5818 5818 5818 5818 5818 5817 5817 5817 5818 5818 5818 5818 5818 5818 5817 5817 5816 5815 5815 5814 5813 5812 5811 5810 5809 5807 5806 5805 5804 5802 5801 5800 5798 5796 5795 5793 5792 5790 5788 5786 5784 5783
5807 5807 5811 5812 5811 5811 5810 5810 5811 5810 5810 5810 5811 5811 5812 5812 5810 5810 5809 5808 5809 5807 5809 5809 5806 5807 5812 5812 5812 5814 5812 5811 5812 5811 5811 5811 5811 5811 5811 5811 5811 5812 5812 5813 5814 5814 5814 5814 5814 5814 5814 5814 5814 5814 5814 5814 5813 5813 5812 5812 5811 5810 5810 5809 5808 5807 5806 5804 5803 5802 5800 5799 5798 5797 5795 5794 5792 5791 5789 5788 5786 5784 5782 5780 5778 5776
5802 5803 5806 5807 5806 5806 5805 5805 5806 5807 5806 5805 5805 5808 5809 5807 5806 5805 5805 5805 5804 5803 5803 5805 5803 5801 5805 5809 5810 5810 5809 5807 5808 5807 5807 5807 5807 5807 5807 5807 5807 5808 5809 5809 5810 5810 5810 5810 5810 5810 5810 5810 5810 5810 5809 5809 5809 5808 5807 5807 5806 5805 5804 5804 5803 5802 5800 5799 5797 5796 5795 5794 5792 5791 5789 5788 5787 5785 5784 5782 5780 5778 5776 5774 5772 5770
5799 5800 5801 5801 5800 5800 5800 5801 5803 5804 5801 5799 5801 5804 5804 5803 5802 5801 5801 5800 5800 5798 5797 5800 5801 5796 5797 5805 5808 5806 5804 5803 5804 5804 5803 5802 5802 5802 5803 5803 5803 5804 5805 5805 5806 5806 5806 5806 5806 5806 5806 5806 5806 5805 5805 5805 5804 5803 5802 5801 5801 5800 5799 5798 5797 5796 5795 5793 5792 5790 5789 5788 5786 5785 5783 5782 5781 5779 5778 5776 5774 5772 5769 5767 5765 5763
5795 5796 5796 5796 5796 5795 5797 5798 5799 5799 5796 5795 5797 5799 5799 5798 5798 5798 5797 5796 5795 5793 5790 5795 5799 5793 5791 5799 5804 5801 5800 5800 5800 5799 5798 5798 5798 5799 5799 5799 5800 5800 5801 5801 5801 5802 5802 5802 5802 5802 5802 5802 5802 5801 5800 5800 5799 5798 5797 5796 5796 5795 5794 5793 5792 5791 5789 5788 5787 5785 5784 5782 5780 5779 5777 5776 5775 5773 5771 5769 5767 5765 5763 5760 5758 5756
5790 5792 5792 5792 5791 5791 5793 5794 5794 5794 5792 5792 5793 5794 5794 5794 5794 5793 5792 5791 5790 5786 5785 5791 5795 5792 5787 5790 5796 5797 5797 5797 5796 5794 5794 5795 5794 5795 5795 5795 5796 5796 5797 5797 5797 5798 5798 5798 5798 5798 5798 5798 5797 5797 5796 5795 5794 5793 5792 5791 5791 5790 5789 5788 5787 5785 5784 5783 5781 5779 5778 5776 5774 5773 5771 5770 5768 5766 5764 5762 5760 5758 5755 5753 5751 5748
5785 5787 5788 5787 5787 5788 5789 5790 5790 5789 5789 5789 5789 5789 5789 5789 5789 5788 5787 5786 5783 5779 5782 5788 5791 5789 5784 5781 5787 5793 5794 5791 5790 5791 5791 5791 5791 5791 5791 5791 5792 5792 5793 5793 5794 5794 5794 5794 5795 5794 5794 5794 5793 5792 5791 5790 5789 5788 5787 5786 5785 5785 5784 5782 5781 5780 5778 5777 5775 5774 5772 5770 5768 5767 5765 5763 5761 5759 5757 5754 5752 5750 5748 5745 5743 5741
5781 5782 5782 5783 5784 5784 5784 5785 5785 5785 5785 5785 5784 5784 5785 5783 5783 5782 5781 5780 5778 5776 5779 5783 5785 5783 5779 5777 5781 5787 5789 5786 5785 5786 5787 5786 5787 5787 5787 5787 5788 5789 5789 5790 5790 5790 5790 5791 5791 5790 5790 5789 5788 5787 5786 5785 5784 5783 5782 5781 5780 5779 5778 5777 5775 5774 5773 5771 5769 5768 5766 5764 5762 5760 5758 5756 5753 5751 5749 5746 5744 5742 5740 5737 5735 5732
5776 5777 5777 5778 5778 5779 5780 5780 5780 5781 5781 5781 5780 5779 5779 5778 5776 5775 5775 5775 5775 5774 5775 5776 5777 5775 5773 5775 5776 5779 5783 5783 5781 5781 5782 5782 5782 5783 5783 5783 5784 5785 5785 5785 5786 5786 5787 5786 5786 5786 5785 5784 5783 5782 5780 5779 5778 5777 5776 5775 5774 5773 5772 5771 5770 5768 5767 5765 5763 5761 5759 5757 5755 5753 5751 5748 5745 5743 5740 5738 5736 5734 5731 5728 5725 5723
5770 5772 5772 5773 5774 5776 5775 5775 5776 5776 5776 5775 5775 5774 5774 5773 5771 5770 5771 5771 5770 5770 5770 5770 5769 5767 5767 5772 5774 5773 5775 5777 5777 5777 5777 5777 5777 5778 5779 5779 5780 5780 5781 5781 5782 5782 5782 5782 5782 5781 5780 5779 5778 5776 5775 5774 5773 5772 5771 5770 5769 5768 5766 5765 5763 5762 5760 5758 5755 5753 5751 5749 5747 5745 5742 5739 5737 5734 5732 5730 5727 5725 5722 5719 5716 5714
5765 5766 5768 5769 5770 5771 5770 5770 5770 5769 5770 5770 5770 5769 5768 5769 5768 5767 5767 5765 5764 5764 5764 5763 5762 5761 5763 5767 5769 5769 5769 5770 5772 5773 5773 5773 5773 5773 5774 5775 5775 5776 5776 5777 5778 5778 5778 5777 5777 5776 5775 5774 5772 5771 5770 5769 5768 5767 5766 5765 5763 5761 5760 5758 5756 5754 5752 5750 5748 5745 5743 5741 5739 5736 5733 5730 5728 5726 5723 5721 5718 5715 5713 5710 5707 5704
5760 5760 5763 5765 5765 5765 5765 5765 5764 5763 5764 5765 5765 5763 5763 5766 5767 5764 5762 5760 5758 5757 5756 5756 5756 5758 5760 5761 5763 5764 5765 5766 5766 5767 5768 5768 5769 5769 5770 5770 5771 5771 5772 5773 5773 5773 5773 5773 5772 5771 5770 5769 5767 5766 5765 5764 5763 5762 5760 5758 5756 5754 5753 5751 5748 5746 5744 5742 5740 5738 5736 5734 5731 5728 5725 5722 5720 5718 5715 5712 5710 5706 5703 5701 5698 5695
5754 5754 5756 5759 5759 5759 5760 5760 5759 5758 5758 5758 5759 5759 5760 5763 5762 5758 5756 5756 5754 5750 5749 5750 5752 5755 5756 5756 5757 5758 5760 5762 5761 5761 5763 5763 5764 5765 5765 5766 5766 5767 5768 5768 5768 5769 5768 5767 5767 5765 5764 5763 5761 5760 5759 5758 5756 5754 5752 5751 5749 5747 5745 5743 5741 5739 5737 5735 5733 5730 5728 5725 5723 5720 5717 5715 5712 5709 5707 5704 5700 5697 5694 5692 5689 5686
5749 5747 5749 5752 5753 5754 5755 5755 5753 5753 5753 5753 5754 5756 5757 5757 5755 5753 5751 5749 5748 5745 5744 5746 5747 5750 5750 5750 5752 5754 5755 5756 5756 5755 5756 5757 5759 5760 5761 5761 5762 5762 5762 5763 5763 5763 5762 5761 5760 5759 5757 5756 5754 5753 5752 5751 5749 5747 5746 5744 5742 5740 5738 5736 5733 5731 5729 5727 5725 5723 5720 5717 5715 5712 5709 5707 5704 5701 5698 5694 5691 5688 5685 5682 5680 5677
5744 5742 5743 5745 5747 5748 5749 5748 5747 5748 5749 5750 5750 5751 5751 5749 5748 5748 5746 5744 5743 5740 5740 5741 5740 5742 5744 5744 5747 5750 5750 5750 5750 5750 5751 5752 5752 5753 5755 5756 5756 5756 5756 5756 5756 5755 5755 5754 5753 5751 5749 5748 5747 5747 5746 5744 5742 5740 5738 5737 5734 5732 5730 5728 5726 5724 5722 5720 5717 5715 5712 5709 5706 5704 5701 5698 5695 5692 5688 5685 5682 5679 5676 5673 5670 5667
5740 5738 5736 5738 5741 5742 5742 5741 5742 5745 5746 5746 5744 5744 5744 5743 5742 5742 5740 5740 5739 5735 5735 5736 5734 5735 5738 5739 5742 5745 5745 5744 5744 5746 5746 5746 5747 5748 5749 5749 5749 5749 5749 5749 5749 5748 5747 5746 5745 5743 5742 5741 5741 5740 5739 5737 5735 5733 5731 5729 5727 5724 5723 5721 5718 5717 5714 5712 5709 5706 5703 5701 5698 5695 5692 5689 5686 5682 5679 5675 5672 5669 5666 5663 5661 5658
5733 5733 5732 5732 5734 5735 5734 5736 5739 5740 5739 5739 5738 5737 5738 5738 5737 5735 5733 5734 5735 5732 5732 5731 5728 5729 5731 5733 5737 5739 5739 5739 5740 5741 5741 5741 5742 5742 5742 5742 5742 5743 5743 5743 5742 5741 5740 5739 5737 5736 5735 5735 5735 5733 5732 5729 5727 5725 5723 5721 5719 5717 5715 5713 5711 5709 5706 5703 5700 5698 5695 5692 5689 5686 5683 5679 5676 5672 5669 5666 5663 5660 5657 5654 5652 5649
5727 5727 5726 5725 5726 5727 5728 5731 5733 5732 5731 5732 5733 5731 5731 5733 5732 5729 5727 5729 5730 5729 5729 5726 5723 5724 5725 5726 5730 5733 5733 5735 5736 5735 5735 5735 5736 5736 5736 5736 5736 5736 5737 5737 5736 5734 5733 5731 5730 5729 5729 5728 5728 5726 5724 5722 5719 5717 5715 5713 5711 5709 5707 5705 5703 5700 5697 5694 5692 5689 5686 5683 5680 5676 5673 5670 5666 5663 5660 5657 5654 5651 5648 5645 5642 5640
5720 5719 5719 5719 5719 5721 5722 5723 5725 5725 5724 5725 5724 5724 5726 5727 5728 5726 5724 5725 5725 5724 5725 5721 5716 5717 5720 5721 5723 5725 5727 5729 5729 5729 5729 5729 5730 5730 5729 5729 5729 5730 5731 5730 5729 5727 5725 5724 5723 5723 5723 5722 5720 5718 5715 5713 5711 5709 5707 5705 5703 5701 5699 5696 5694 5691 5688 5685 5682 5679 5676 5673 5670 5667 5663 5660 5657 5653 5651 5648 5645 5642 5639 5636 5633 5631
5713 5712 5713 5714 5713 5714 5714 5715 5716 5716 5716 5715 5718 5722 5722 5722 5724 5722 5720 5719 5718 5717 5719 5717 5711 5711 5715 5717 5718 5718 5720 5721 5722 5722 5723 5723 5723 5723 5722 5722 5723 5724 5724 5723 5721 5720 5718 5717 5717 5717 5715 5714 5712 5710 5707 5705 5703 5701 5699 5697 5695 5692 5690 5687 5684 5681 5678 5675 5672 5669 5666 5663 5660 5657 5653 5650 5647 5644 5641 5638 5636 5632 5629 5626 5624 5621
5707 5706 5707 5707 5706 5706 5706 5707 5708 5710 5711 5712 5715 5718 5716 5716 5717 5715 5715 5714 5711 5711 5713 5709 5705 5707 5710 5711 5712 5713 5714 5715 5715 5715 5716 5716 5715 5715 5714 5715 5717 5717 5716 5715 5714 5712 5711 5710 5710 5709 5707 5706 5704 5702 5699 5697 5695 5693 5691 5688 5686 5683 5681 5678 5675 5672 5669 5666 5663 5660 5657 5654 5650 5647 5643 5641 5638 5634 5632 5629 5626 5623 5620 5617 5615 5612
5699 5699 5699 5699 5699 5699 5699 5701 5704 5707 5708 5707 5708 5709 5709 5710 5709 5708 5710 5708 5703 5704 5705 5701 5701 5705 5706 5705 5706 5708 5709 5709 5709 5708 5708 5708 5707 5707 5707 5708 5709 5709 5708 5707 5705 5704 5703 5703 5702 5701 5699 5698 5696 5694 5691 5689 5687 5684 5682 5679 5677 5674 5672 5669 5666 5663 5660 5657 5654 5651 5648 5644 5641 5637 5634 5632 5629 5625 5622 5619 5616 5614 5611 5609 5607 5604
5691 5690 5691 5692 5692 5693 5696 5698 5698 5699 5699 5699 5701 5702 5702 5703 5703 5702 5701 5698 5697 5699 5697 5696 5699 5700 5700 5700 5702 5703 5703 5703 5703 5701 5701 5701 5700 5700 5701 5702 5701 5701 5699 5698 5697 5696 5696 5695 5694 5693 5691 5690 5688 5686 5684 5681 5679 5676 5673 5671 5668 5665 5663 5660 5657 5655 5652 5649 5646 5642 5639 5635 5632 5628 5626 5623 5620 5617 5614 5611 5608 5605 5602 5600 5598 5596
5683 5682 5685 5686 5684 5687 5692 5692 5690 5690 5690 5693 5694 5695 5695 5696 5696 5694 5690 5692 5696 5693 5689 5693 5696 5694 5694 5696 5696 5696 5696 5696 5696 5695 5695 5695 5695 5694 5695 5695 5693 5692 5691 5690 5689 5689 5688 5688 5686 5685 5683 5682 5680 5678 5676 5673 5671 5668 5666 5663 5660 5657 5655 5652 5649 5646 5644 5640 5637 5634 5630 5626 5623 5620 5617 5614 5611 5608 5605 5602 5599 5596 5594 5591 5589 5587
5675 5675 5678 5678 5676 5680 5685 5684 5683 5683 5683 5685 5686 5687 5688 5688 5687 5685 5684 5689 5691 5684 5684 5691 5690 5688 5689 5691 5690 5690 5689 5689 5690 5690 5689 5688 5688 5689 5689 5687 5685 5684 5683 5682 5682 5682 5681 5680 5678 5677 5675 5673 5672 5670 5668 5665 5663 5660 5657 5655 5652 5649 5646 5644 5640 5638 5635 5632 5629 5625 5621 5618 5614 5611 5609 5606 5603 5599 5596 5593 5590 5587 5584 5582 5580 5577
5667 5668 5672 5670 5667 5673 5677 5676 5677 5677 5676 5677 5677 5678 5681 5681 5680 5678 5678 5683 5682 5677 5681 5684 5681 5682 5683 5683 5685 5685 5683 5684 5685 5684 5683 5682 5682 5682 5680 5679 5678 5676 5675 5675 5675 5674 5673 5671 5669 5668 5667 5665 5663 5661 5659 5657 5654 5652 5649 5647 5644 5641 5638 5635 5632 5629 5626 5623 5620 5616 5613 5609 5606 5603 5601 5598 5594 5591 5587 5584 5581 5578 5575 5573 5570 5568
5659 5661 5664 5662 5658 5663 5669 5670 5670 5669 5668 5670 5670 5672 5674 5673 5671 5669 5671 5676 5674 5673 5678 5677 5674 5677 5676 5674 5679 5679 5677 5678 5677 5676 5676 5675 5674 5673 5671 5671 5670 5668 5669 5669 5668 5666 5664 5662 5661 5660 5658 5656 5655 5653 5651 5649 5646 5644 5642 5639 5636 5632 5628 5626 5623 5620 5617 5614 5611 5608 5604 5601 5597 5595 5593 5589 5585 5582 5578 5575 5572 5570 5567 5564 5561 5558
5652 5653 5656 5655 5649 5654 5664 5664 5661 5661 5660 5658 5661 5666 5668 5665 5662 5662 5667 5670 5668 5669 5672 5669 5667 5671 5670 5668 5672 5672 5670 5670 5668 5668 5668 5667 5666 5665 5663 5662 5661 5662 5663 5661 5660 5658 5656 5655 5653 5652 5650 5648 5647 5645 5643 5641 5639 5637 5634 5631 5627 5623 5620 5617 5615 5611 5608 5605 5602 5599 5595 5592 5589 5586 5584 5581 5577 5574 5570 5567 5564 5561 5558 5554 5551 5548
5645 5645 5648 5648 5642 5647 5656 5654 5652 5653 5647 5644 5653 5662 5662 5658 5655 5656 5660 5662 5663 5663 5662 5660 5662 5665 5662 5661 5663 5662 5661 5661 5660 5660 5660 5659 5658 5656 5654 5654 5654 5655 5655 5652 5650 5649 5648 5647 5646 5644 5643 5641 5639 5637 5635 5633 5631 5628 5625 5622 5618 5615 5612 5609 5606 5602 5599 5596 5593 5590 5586 5583 5580 5578 5575 5572 5568 5565 5561 5558 5555 5552 5548 5545 5541 5538
5638 5638 5640 5640 5636 5639 5645 5645 5643 5638 5632 5636 5650 5656 5653 5650 5648 5649 5651 5654 5655 5653 5652 5652 5656 5656 5652 5653 5655 5653 5652 5653 5652 5652 5651 5650 5650 5648 5648 5648 5647 5647 5645 5643 5642 5642 5641 5640 5638 5636 5635 5633 5631 5628 5626 5624 5622 5619 5616 5613 5609 5607 5604 5600 5597 5593 5590 5587 5584 5581 5577 5574 5572 5569 5566 5563 5560 5556 5553 5549 5546 5543 5539 5535 5532 5528
5630 5631 5632 5632 5630 5630 5634 5635 5629 5622 5625 5636 5644 5644 5644 5643 5641 5640 5642 5645 5645 5643 5643 5644 5646 5647 5645 5645 5646 5644 5644 5644 5643 5643 5643 5642 5642 5642 5641 5640 5639 5638 5636 5635 5635 5634 5633 5632 5630 5628 5627 5624 5622 5620 5617 5615 5613 5609 5606 5604 5600 5598 5595 5591 5588 5585 5582 5579 5576 5572 5569 5566 5563 5560 5558 5555 5552 5548 5545 5541 5537 5533 5529 5526 5522 5518
5622 5623 5624 5624 5622 5621 5622 5621 5616 5616 5624 5631 5633 5634 5635 5633 5632 5632 5632 5637 5638 5634 5634 5636 5637 5638 5637 5635 5635 5636 5636 5636 5635 5635 5635 5634 5634 5635 5633 5631 5630 5629 5628 5628 5627 5626 5624 5623 5622 5620 5618 5615 5613 5611 5608 5606 5603 5599 5597 5594 5591 5588 5585 5582 5579 5576 5574 5570 5567 5564 5561 5558 5555 5552 5550 5547 5544 5540 5537 5533 5529 5524 5521 5517 5513 5509
5614 5615 5615 5614 5612 5612 5611 5609 5610 5613 5616 5620 5624 5626 5625 5623 5624 5624 5623 5627 5630 5624 5623 5627 5628 5627 5627 5627 5628 5629 5628 5627 5626 5627 5628 5626 5626 5626 5623 5622 5621 5621 5621 5620 5618 5617 5616 5615 5613 5611 5608 5606 5604 5601 5599 5596 5593 5590 5588 5585 5582 5579 5576 5573 5570 5568 5565 5562 5558 5556 5553 5550 5548 5545 5541 5538 5535 5532 5528 5524 5520 5516 5513 5509 5505 5502
5606 5606 5608 5606 5603 5605 5605 5602 5602 5602 5604 5612 5618 5617 5615 5615 5617 5616 5613 5617 5621 5617 5614 5618 5619 5618 5619 5620 5620 5620 5620 5618 5619 5622 5621 5618 5617 5615 5614 5613 5614 5613 5612 5611 5610 5609 5608 5606 5604 5602 5599 5597 5594 5592 5589 5586 5584 5581 5579 5576 5573 5570 5567 5565 5562 5559 5556 5553 5551 5548 5546 5543 5540 5536 5533 5530 5527 5523 5519 5516 5512 5509 5505 5501 5498 5495
5597 5597 5600 5597 5593 5596 5597 5593 5592 5593 5597 5607 5611 5607 5606 5607 5609 5608 5604 5605 5613 5611 5606 5609 5612 5610 5611 5611 5611 5612 5611 5611 5613 5616 5614 5610 5607 5606 5606 5606 5605 5604 5603 5602 5601 5600 5598 5596 5594 5592 5589 5587 5585 5582 5580 5577 5575 5572 5569 5567 5564 5561 5559 5556 5553 5550 5548 5545 5543 5541 5538 5535 5531 5527 5524 5521 5518 5514 5510 5508 5504 5501 5498 5494 5491 5488
5589 5589 5590 5588 5586 5588 5589 5585 5585 5588 5592 5598 5600 5598 5598 5598 5600 5598 5593 5597 5608 5606 5599 5602 5604 5602 5603 5603 5603 5604 5604 5604 5606 5608 5605 5602 5600 5599 5599 5598 5596 5595 5595 5594 5592 5590 5588 5586 5584 5582 5580 5578 5575 5573 5571 5568 5566 5563 5560 5558 5555 5553 5550 5547 5544 5542 5540 5538 5535 5532 5529 5526 5522 5518 5515 5512 5508 5505 5502 5500 5497 5494 5490 5487 5483 5480
5580 5581 5581 5581 5581 5582 5581 5579 5578 5580 5584 5590 5590 5589 5589 5588 5587 5587 5586 5592 5600 5598 5593 5595 5595 5594 5596 5596 5596 5597 5597 5596 5598 5598 5597 5596 5594 5592 5591 5590 5588 5587 5586 5584 5583 5581 5579 5577 5574 5572 5570 5568 5565 5563 5561 5559 5557 5555 5552 5549 5546 5544 5541 5538 5535 5534 5532 5529 5526 5523 5520 5516 5513 5509 5506 5503 5500 5498 5495 5492 5489 5486 5482 5479 5475 5472
5572 5573 5572 5573 5575 5575 5574 5573 5571 5571 5578 5583 5580 5578 5580 5579 5576 5578 5582 5585 5587 5588 5588 5587 5586 5587 5589 5588 5588 5589 5588 5588 5589 5589 5589 5588 5586 5585 5583 5582 5580 5579 5577 5575 5573 5571 5569 5566 5564 5562 5560 5558 5556 5554 5552 5550 5548 5545 5543 5540 5538 5534 5531 5529 5527 5525 5523 5520 5517 5514 5510 5507 5503 5500 5498 5495 5493 5490 5487 5484 5481 5478 5475 5471 5468 5465
5565 5565 5564 5566 5569 5568 5567 5565 5563 5565 5573 5576 5571 5570 5573 5571 5568 5570 5574 5575 5577 5580 5580 5579 5579 5579 5579 5579 5580 5580 5580 5580 5579 5580 5580 5579 5578 5577 5575 5573 5572 5570 5568 5566 5563 5561 5559 5557 5554 5552 5550 5548 5547 5545 5543 5541 5539 5536 5534 5532 5528 5524 5522 5520 5519 5516 5513 5511 5507 5504 5501 5497 5495 5492 5490 5488 5485 5482 5480 5477 5473 5470 5467 5463 5460 5457
5557 5557 5557 5560 5562 5560 5558 5558 5559 5561 5566 5566 5563 5562 5563 5560 5559 5562 5566 5567 5570 5571 5572 5572 5572 5571 5570 5571 5571 5571 5572 5571 5570 5571 5571 5569 5569 5568 5565 5564 5562 5560 5557 5556 5553 5551 5550 5547 5545 5543 5541 5539 5538 5536 5534 5532 5529 5527 5525 5523 5518 5515 5513 5511 5509 5506 5504 5501 5498 5495 5492 5489 5487 5485 5482 5480 5478 5475 5472 5469 5466 5462 5459 5455 5452 5450
5549 5551 5551 5553 5554 5552 5551 5553 5554 5555 5556 5555 5555 5554 5552 5550 5552 5556 5559 5560 5561 5562 5564 5565 5564 5563 5564 5564 5563 5563 5563 5562 5562 5563 5562 5560 5559 5558 5555 5553 5552 5549 5548 5546 5544 5542 5540 5538 5536 5534 5532 5530 5528 5526 5525 5523 5520 5519 5517 5513 5508 5506 5504 5501 5499 5497 5494 5491 5489 5486 5484 5482 5479 5477 5475 5472 5470 5467 5464 5461 5458 5454 5451 5448 5444 5442
5542 5544 5544 5544 5544 5543 5544 5546 5547 5547 5547 5546 5545 5543 5542 5543 5546 5549 5551 5552 5554 5555 5556 5557 5557 5557 5557 5557 5556 5555 5554 5554 5555 5554 5553 5551 5550 5547 5545 5543 5541 5540 5538 5536 5534 5532 5530 5529 5527 5525 5523 5521 5519 5517 5515 5513 5511 5510 5508 5503 5499 5496 5494 5491 5489 5487 5485 5482 5480 5478 5476 5474 5472 5469 5466 5464 5461 5459 5456 5453 5449 5446 5443 5440 5437 5434
5535 5536 5535 5535 5536 5535 5536 5538 5539 5538 5538 5537 5535 5534 5534 5536 5539 5542 5543 5544 5546 5547 5548 5549 5551 5551 5550 5549 5548 5546 5545 5545 5546 5545 5543 5542 5539 5537 5536 5534 5532 5531 5529 5526 5524 5523 5521 5520 5518 5516 5514 5512 5510 5508 5506 5504 5502 5501 5497 5493 5490 5487 5484 5482 5480 5478 5476 5474 5472 5470 5468 5466 5464 5461 5458 5455 5453 5450 5447 5444 5441 5438 5436 5433 5429 5427
5529 5528 5527 5527 5528 5528 5528 5531 5530 5528 5528 5528 5526 5525 5526 5529 5531 5534 5536 5537 5538 5539 5540 5542 5543 5543 5542 5541 5539 5538 5538 5537 5536 5534 5532 5530 5529 5527 5525 5524 5522 5521 5519 5517 5516 5515 5513 5512 5510 5508 5506 5504 5501 5498 5496 5495 5493 5490 5487 5485 5482 5478 5476 5474 5472 5470 5468 5466 5464 5462 5460 5458 5455 5453 5450 5447 5444 5441 5438 5436 5433 5431 5429 5426 5423 5420
5522 5521 5521 5521 5520 5520 5521 5522 5521 5518 5517 5517 5516 5516 5518 5521 5524 5527 5528 5530 5530 5531 5531 5533 5534 5534 5533 5532 5530 5530 5529 5527 5525 5523 5521 5519 5518 5516 5515 5514 5513 5512 5510 5508 5507 5506 5505 5503 5501 5498 5496 5494 5491 5488 5486 5485 5483 5480 5478 5475 5473 5470 5468 5466 5464 5462 5460 5458 5456 5454 5452 5449 5446 5444 5442 5439 5436 5433 5430 5428 5425 5423 5421 5419 5416 5413
5516 5515 5514 5512 5511 5511 5513 5512 5509 5507 5507 5507 5509 5509 5511 5515 5518 5519 5520 5521 5521 5522 5523 5523 5524 5524 5523 5522 5520 5520 5518 5516 5514 5513 5512 5511 5509 5506 5505 5505 5504 5503 5502 5500 5498 5497 5496 5494 5492 5489 5487 5484 5481 5478 5476 5475 5473 5470 5468 5465 5464 5462 5460 5458 5457 5455 5453 5451 5448 5445 5443 5440 5437 5435 5432 5430 5428 5425 5422 5420 5417 5415 5414 5411 5409 5406
5508 5507 5505 5502 5501 5502 5503 5501 5499 5498 5499 5500 5501 5502 5504 5507 5509 5510 5511 5512 5512 5512 5513 5513 5513 5514 5513 5511 5511 5510 5508 5506 5505 5504 5504 5503 5500 5498 5496 5495 5494 5494 5493 5491 5489 5489 5487 5484 5482 5480 5478 5475 5471 5468 5467 5465 5463 5461 5459 5456 5455 5453 5451 5450 5448 5447 5445 5443 5440 5437 5434 5431 5428 5425 5423 5420 5418 5416 5414 5411 5409 5407 5405 5403 5401 5398